Hourly Data Report for January 16, 2022

BANCROFT AUTO
ONTARIO
Current Station Operator: ECCC - MSC

45°04'17.000" N
77°52'44.000" W
330.70 m
616I001
71294
WRK

Download Data

Hourly Data (January 2022)
Hourly Data Report for January 16, 2022
TIME
LST
Temp Definition
°C
Dew Point Definition
°C
Rel Hum Definition
%
Precip. Amount Definition
mm

Wind Dir Definition
10's deg

Wind Spd Definition
km/h
Visibility Definition
km
Stn Press Definition
kPa
Hmdx Definition


Wind Chill Definition


Weather Definition


00:00 -29.3 -32.0 77 0.0   0   98.88     LegendNANA
01:00 -29.8 -32.7 76 0.0   0   98.79     LegendNANA
02:00 -30.1 -33.0 76 0.0   0   98.78     LegendNANA
03:00 -30.4 -33.3 76 0.0   0   98.70     LegendNANA
04:00 -30.5 -33.4 76 0.0   0   98.60     LegendNANA
05:00 -30.9 -33.8 75 0.0   0   98.53     LegendNANA
06:00 -30.1 -33.0 76 0.0 29 2   98.52   -32 LegendNANA
07:00 -28.1 -30.9 77 0.0 36 1   98.46   -29 LegendNANA
08:00 -25.9 -28.7 78 0.0 0 1   98.41   -27 LegendNANA
09:00 -23.7 -26.6 78 0.0 31 2   98.33   -26 LegendNANA
10:00 -19.7 -22.5 78 0.0   0   98.25     LegendNANA
11:00 -14.0 -18.9 66 0.0 13 3   98.13   -16 LegendNANA
12:00 -10.6 -17.9 55 0.0 16 5   97.95   -14 LegendNANA
13:00 -8.5 -17.9 47 0.0 16 7   97.83   -12 LegendNANA
14:00 -7.6 -19.0 40 0.0 15 6   97.66   -11 LegendNANA
15:00 -7.8 -18.7 41 0.0 10 6   97.53   -11 LegendNANA
16:00 -7.8 -17.6 45 0.0 14 5   97.48   -10 LegendNANA
17:00 -9.5 -17.1 54 0.0 15 5   97.41   -12 LegendNANA
18:00 -11.0 -17.7 58 0.0 14 2   97.37   -12 LegendNANA
19:00 -15.3 -18.4 77 0.0   0   97.37     LegendNANA
20:00 -13.8 -17.0 77 0.0 28 1   97.30   -14 LegendNANA
21:00 -14.3 -17.4 77 0.0 30 2   97.16   -16 LegendNANA
22:00 -14.3 -16.7 82 0.0   0   97.04     LegendNANA
23:00 -13.8 -16.5 80 0.0 19 1   96.97   -14 LegendNANA

Notes on Data Quality.

Legend

  • E = Estimated
  • M = Missing
  • NA = Not Available*
  • [empty] = Indicates an unobserved value
Date modified: